FW4608 Weather Reports


Display with metric or nautical units.
time (UTC)temp
F
wind
direction
speed
MPH
gust
MPH
rain 1hr
in
rain 24hr
in
rain mn
in
humidity
%
barometer
mb
20260505203542 85 154 1.0 4.0 0.00 0.00 0.00 49 1015.3
20260505203047 85 198 0.0 5.0 0.00 0.00 0.00 51 1015.4
20260505202541 84 328 2.0 5.0 0.00 0.00 0.00 50 1015.5
20260505202043 85 39 1.0 6.0 0.00 0.00 0.00 50 1015.5
20260505201542 84 285 0.0 7.0 0.00 0.00 0.00 51 1015.6
20260505201039 85 357 2.0 7.0 0.00 0.00 0.00 51 1015.5
20260505200539 85 188 1.0 8.0 0.00 0.00 0.00 49 1015.5
20260505200048 85 110 1.0 8.0 0.00 0.00 0.00 52 1015.5
20260505195540 86 200 0.0 4.0 0.00 0.00 0.00 50 1015.6
20260505195037 86 271 1.0 4.0 0.00 0.00 0.00 50 1015.7
20260505194548 86 183 1.0 4.0 0.00 0.00 0.00 51 1015.7
20260505194041 86 117 1.0 6.0 0.00 0.00 0.00 49 1015.6
20260505193535 86 294 2.0 9.0 0.00 0.00 0.00 49 1015.7
20260505193035 86 295 0.0 9.0 0.00 0.00 0.00 51 1015.8
20260505192535 87 74 2.0 6.0 0.00 0.00 0.00 49 1015.7
20260505192030 87 108 0.0 5.0 0.00 0.00 0.00 49 1015.9
20260505191531 87 292 1.0 4.0 0.00 0.00 0.00 49 1016.0
20260505191030 87 300 0.0 5.0 0.00 0.00 0.00 51 1016.1
20260505190528 86 195 1.0 5.0 0.00 0.00 0.00 51 1016.2
20260505190030 86 298 0.0 5.0 0.00 0.00 0.00 52 1016.1
20260505185531 87 281 1.0 6.0 0.00 0.00 0.00 50 1016.1
20260505185024 86 214 1.0 7.0 0.00 0.00 0.00 50 1016.2
20260505184528 86 120 1.0 7.0 0.00 0.00 0.00 52 1016.2
20260505184023 86 348 2.0 7.0 0.00 0.00 0.00 50 1016.3
20260505183523 86 120 1.0 4.0 0.00 0.00 0.00 53 1016.2
20260505183120 86 107 0.0 3.0 0.00 0.00 0.00 53 1016.3
20260505182522 86 253 0.0 5.0 0.00 0.00 0.00 50 1016.3
20260505182017 85 94 1.0 5.0 0.00 0.00 0.00 54 1016.4
20260505181517 85 192 1.0 5.0 0.00 0.00 0.00 54 1016.3
20260505181033 84 312 1.0 5.0 0.00 0.00 0.00 55 1016.4
20260505180518 85 195 2.0 6.0 0.00 0.00 0.00 53 1016.5
20260505180032 85 167 1.0 6.0 0.00 0.00 0.00 52 1016.5
20260505175515 85 150 2.0 6.0 0.00 0.00 0.00 54 1016.5
20260505175018 86 110 1.0 5.0 0.00 0.00 0.00 51 1016.6
20260505174523 86 188 1.0 5.0 0.00 0.00 0.00 53 1016.7
20260505174010 86 46 0.0 3.0 0.00 0.00 0.00 55 1016.7
20260505173517 83 233 0.0 4.0 0.00 0.00 0.00 55 1016.7
20260505173012 82 156 0.0 4.0 0.00 0.00 0.00 56 1016.7
20260505172505 84 124 1.0 4.0 0.00 0.00 0.00 51 1016.7
20260505172004 84 284 1.0 3.0 0.00 0.00 0.00 55 1016.7
20260505171505 85 319 0.0 2.0 0.00 0.00 0.00 51 1016.7
20260505171004 85 110 0.0 2.0 0.00 0.00 0.00 52 1016.8
20260505170505 85 152 0.0 3.0 0.00 0.00 0.00 52 1016.9
20260505170100 86 203 0.0 3.0 0.00 0.00 0.00 53 1016.9
20260505170001 85 129 0.0 3.0 0.00 0.00 0.00 55 1016.8
20260505165557 85 103 1.0 3.0 0.00 0.00 0.00 56 1016.9
20260505165057 84 129 0.0 3.0 0.00 0.00 0.00 53 1017.0
20260505164556 83 131 1.0 3.0 0.00 0.00 0.00 55 1017.0
20260505164057 82 96 0.0 3.0 0.00 0.00 0.00 57 1017.0
20260505163554 82 355 0.0 2.0 0.00 0.00 0.00 57 1016.9
20260505163056 81 155 0.0 2.0 0.00 0.00 0.00 59 1017.0
20260505162551 81 285 0.0 1.0 0.00 0.00 0.00 58 1017.1
20260505162053 81 310 0.0 5.0 0.00 0.00 0.00 57 1017.1
20260505161603 82 172 1.0 5.0 0.00 0.00 0.00 54 1017.0
20260505161051 83 329 0.0 2.0 0.00 0.00 0.00 55 1017.0
20260505160550 84 267 0.0 4.0 0.00 0.00 0.00 52 1017.0
20260505153042 81 178 0.0 5.0 0.00 0.00 0.00 60 1017.0
20260505152035 81 168 0.0 4.0 0.00 0.00 0.00 61 1017.1
20260505151552 81 310 0.0 3.0 0.00 0.00 0.00 61 1017.1
20260505151037 80 231 1.0 3.0 0.00 0.00 0.00 60 1017.0
20260505150531 80 207 0.0 2.0 0.00 0.00 0.00 64 1017.1
20260505140556 75 309 0.0 2.0 0.00 0.00 0.00 72 1017.2
20260505140110 75 300 0.0 3.0 0.00 0.00 0.00 71 1017.2
20260505130127 67 146 0.0 1.0 0.00 0.00 0.00 88 1016.8
20260505125028 64 131 0.0 0.0 0.00 0.00 0.00 92 1016.7
20260505124537 63 185 0.0 1.0 0.00 0.00 0.00 94 1016.8
20260505124023 63 263 0.0 1.0 0.00 0.00 0.00 94 1016.8
20260505123625 62 11 0.0 0.0 0.00 0.00 0.00 94 1016.7
20260505123021 62 11 0.0 0.0 0.00 0.00 0.00 94 1016.8
20260505122517 61 11 0.0 0.0 0.00 0.00 0.00 94 1016.9
20260505122022 60 11 0.0 0.0 0.00 0.00 0.00 94 1016.9
20260505121020 59 11 0.0 1.0 0.00 0.00 0.00 94 1016.7
20260505120515 59 10 0.0 0.0 0.00 0.00 0.00 94 1016.5
20260505120017 58 10 0.0 0.0 0.00 0.00 0.00 94 1016.5
20260505115506 58 10 0.0 0.0 0.00 0.00 0.00 94 1016.4
20260505115005 57 10 0.0 0.0 0.00 0.00 0.00 94 1016.3
20260505114504 57 10 0.0 0.0 0.00 0.00 0.00 94 1016.4
20260505114003 57 10 0.0 0.0 0.00 0.00 0.00 93 1016.5
20260505113503 57 10 0.0 0.0 0.00 0.00 0.00 93 1016.5
20260505113003 56 10 0.0 0.0 0.00 0.00 0.00 93 1016.5
20260505112549 56 10 0.0 0.0 0.00 0.00 0.00 93 1016.4
20260505112046 56 10 0.0 0.0 0.00 0.00 0.00 93 1016.4
20260505111546 56 10 0.0 0.0 0.00 0.00 0.00 93 1016.3
20260505111045 56 10 0.0 0.0 0.00 0.00 0.00 93 1016.2
20260505110559 55 10 0.0 0.0 0.00 0.00 0.00 93 1016.2
20260505102037 56 10 0.0 0.0 0.00 0.00 0.00 93 1015.8
20260505101536 56 10 0.0 0.0 0.00 0.00 0.00 92 1015.7
20260505101033 56 10 0.0 0.0 0.00 0.00 0.00 92 1015.7
20260505100531 56 10 0.0 0.0 0.00 0.00 0.00 92 1015.5
20260505100032 56 10 0.0 0.0 0.00 0.00 0.00 92 1015.5
20260505095532 57 10 0.0 0.0 0.00 0.00 0.00 93 1015.4
20260505095033 56 10 0.0 0.0 0.00 0.00 0.00 92 1015.4
20260505094528 56 10 0.0 0.0 0.00 0.00 0.00 92 1015.3
20260505094028 57 10 0.0 0.0 0.00 0.00 0.00 92 1015.3
20260505093526 57 10 0.0 0.0 0.00 0.00 0.00 92 1015.3
20260505093034 57 10 0.0 0.0 0.00 0.00 0.00 92 1015.3
20260505092524 57 10 0.0 0.0 0.00 0.00 0.00 92 1015.2
20260505092021 57 10 0.0 0.0 0.00 0.00 0.00 92 1015.1
20260505091525 57 10 0.0 0.0 0.00 0.00 0.00 92 1015.0
20260505091020 57 10 0.0 0.0 0.00 0.00 0.00 92 1015.0
20260505090525 57 10 0.0 0.0 0.00 0.00 0.00 92 1014.9
20260505090021 57 10 0.0 0.0 0.00 0.00 0.00 92 1015.0
20260505085526 57 10 0.0 0.0 0.00 0.00 0.00 92 1014.9
20260505085020 57 10 0.0 0.0 0.00 0.00 0.00 92 1015.0
20260505084518 57 10 0.0 0.0 0.00 0.00 0.00 92 1014.9
20260505084019 57 10 0.0 0.0 0.00 0.00 0.00 92 1015.0
20260505083517 57 10 0.0 0.0 0.00 0.00 0.00 92 1015.0
20260505083024 57 10 0.0 0.0 0.00 0.00 0.00 92 1014.9
20260505082516 57 10 0.0 0.0 0.00 0.00 0.00 92 1014.9
20260505082014 57 10 0.0 0.0 0.00 0.00 0.00 92 1014.9
20260505081614 57 10 0.0 0.0 0.00 0.00 0.00 92 1014.7
20260505081015 57 10 0.0 0.0 0.00 0.00 0.00 92 1014.6
20260505080511 57 10 0.0 0.0 0.00 0.00 0.00 92 1014.7
20260505080009 57 10 0.0 0.0 0.00 0.00 0.00 92 1014.8
20260505075510 57 10 0.0 0.0 0.00 0.00 0.00 92 1014.9
20260505075008 57 10 0.0 0.0 0.00 0.00 0.00 92 1014.9
20260505074508 57 10 0.0 0.0 0.00 0.00 0.00 91 1015.0
20260505074010 57 10 0.0 0.0 0.00 0.00 0.00 91 1015.0
20260505073510 57 10 0.0 0.0 0.00 0.00 0.00 91 1015.0
20260505073005 57 10 0.0 0.0 0.00 0.00 0.00 91 1015.0
20260505072507 57 10 0.0 0.0 0.00 0.00 0.00 91 1015.1
20260505072002 57 10 0.0 0.0 0.00 0.00 0.00 91 1015.1
20260505071502 57 10 0.0 0.0 0.00 0.00 0.00 91 1015.2
20260505071103 57 10 0.0 0.0 0.00 0.00 0.00 91 1015.2
20260505070601 57 10 0.0 0.0 0.00 0.00 0.00 91 1015.3
20260505070100 57 10 0.0 0.0 0.00 0.00 0.00 91 1015.2
20260505065600 58 10 0.0 0.0 0.00 0.00 0.00 91 1015.3
20260505065011 58 10 0.0 0.0 0.00 0.00 0.00 91 1015.4
20260505064552 58 10 0.0 0.0 0.00 0.00 0.00 90 1015.2
20260505064053 58 10 0.0 0.0 0.00 0.00 0.00 90 1015.3
20260505063553 58 10 0.0 0.0 0.00 0.00 0.00 90 1015.3
20260505063119 58 10 0.0 0.0 0.00 0.00 0.00 90 1015.3
20260505062548 58 10 0.0 0.0 0.00 0.00 0.00 90 1015.5
20260505062047 58 10 0.0 0.0 0.00 0.00 0.00 90 1015.7
20260505061612 58 10 0.0 0.0 0.00 0.00 0.00 90 1015.8
20260505061045 58 10 0.0 0.0 0.00 0.00 0.00 90 1015.9
20260505060546 58 10 0.0 0.0 0.00 0.00 0.00 90 1016.0
20260505060048 58 10 0.0 0.0 0.00 0.00 0.00 89 1016.0
20260505055542 58 10 0.0 0.0 0.00 0.00 0.00 89 1016.0
20260505055041 58 10 0.0 0.0 0.00 0.00 0.00 89 1016.0
20260505054544 59 10 0.0 0.0 0.00 0.00 0.00 89 1016.1
20260505054037 59 10 0.0 0.0 0.00 0.00 0.00 89 1016.1
20260505053539 59 10 0.0 0.0 0.00 0.00 0.00 89 1016.3
20260505053042 59 10 0.0 0.0 0.00 0.00 0.00 89 1016.4
20260505052536 59 10 0.0 0.0 0.00 0.00 0.00 89 1016.4
20260505052042 59 10 0.0 0.0 0.00 0.00 0.00 89 1016.5
20260505051555 59 10 0.0 0.0 0.00 0.00 0.00 89 1016.6
20260505051138 59 10 0.0 0.0 0.00 0.00 0.00 89 1016.6
20260505050529 59 10 0.0 0.0 0.00 0.00 0.00 89 1016.8
20260505041518 61 10 0.0 0.0 0.00 0.00 0.00 86 1016.9
20260505041015 61 10 0.0 0.0 0.00 0.00 0.00 86 1017.0
20260505040513 61 10 0.0 0.0 0.00 0.00 0.00 86 1016.9
20260505040016 61 10 0.0 0.0 0.00 0.00 0.00 86 1016.8
20260505035512 62 10 0.0 0.0 0.00 0.00 0.00 86 1016.8
20260505035010 62 10 0.0 0.0 0.00 0.00 0.00 86 1016.8
20260505034514 62 10 0.0 0.0 0.00 0.00 0.00 85 1016.7
20260505034011 62 10 0.0 0.0 0.00 0.00 0.00 85 1016.8
20260505033513 62 10 0.0 0.0 0.00 0.00 0.00 85 1016.9
20260505033010 62 10 0.0 0.0 0.00 0.00 0.00 85 1016.8
20260505032506 62 10 0.0 0.0 0.00 0.00 0.00 84 1016.8
20260505032005 62 10 0.0 0.0 0.00 0.00 0.00 84 1016.9
20260505031505 63 10 0.0 0.0 0.00 0.00 0.00 84 1016.9
20260505031005 63 10 0.0 0.0 0.00 0.00 0.00 84 1016.9
20260505030504 63 10 0.0 0.0 0.00 0.00 0.00 84 1016.8
20260505030004 63 10 0.0 0.0 0.00 0.00 0.00 84 1016.7
20260505025507 63 10 0.0 0.0 0.00 0.00 0.00 83 1016.6
20260505025118 63 10 0.0 0.0 0.00 0.00 0.00 83 1016.6
20260505024608 63 10 0.0 1.0 0.00 0.00 0.00 83 1016.5
20260505024059 63 357 0.0 1.0 0.00 0.00 0.00 83 1016.4
20260505023559 63 5 0.0 1.0 0.00 0.00 0.00 83 1016.4
20260505023059 63 5 0.0 1.0 0.00 0.00 0.00 83 1016.5
20260505022557 64 5 0.0 0.0 0.00 0.00 0.00 83 1016.5
20260505022502 64 5 0.0 0.0 0.00 0.00 0.00 83 1016.5
20260505022056 64 6 0.0 0.0 0.00 0.00 0.00 82 1016.6
20260505021556 64 5 0.0 0.0 0.00 0.00 0.00 82 1016.7
20260505021058 64 5 0.0 0.0 0.00 0.00 0.00 82 1016.6
20260505020555 64 6 0.0 0.0 0.00 0.00 0.00 81 1016.6
20260505015553 65 5 0.0 1.0 0.00 0.00 0.00 79 1016.7
20260505015502 65 5 0.0 1.0 0.00 0.00 0.00 80 1016.7
20260505015056 65 5 0.0 1.0 0.00 0.00 0.00 79 1016.7
20260505014555 66 5 0.0 0.0 0.00 0.00 0.00 79 1016.6
20260505014052 66 5 0.0 1.0 0.00 0.00 0.00 78 1016.8
20260505013551 66 5 0.0 1.0 0.00 0.00 0.00 78 1016.7
20260505013153 66 157 0.0 0.0 0.00 0.00 0.00 78 1016.7
20260505012549 67 151 0.0 1.0 0.00 0.00 0.00 77 1016.6
20260505012051 67 151 0.0 1.0 0.00 0.00 0.00 77 1016.7
20260505011553 67 139 0.0 1.0 0.00 0.00 0.00 76 1016.7
20260505011046 67 139 0.0 2.0 0.00 0.00 0.00 76 1016.7
20260505010544 68 223 0.0 2.0 0.00 0.00 0.00 76 1016.6
20260505010058 68 340 0.0 1.0 0.00 0.00 0.00 75 1016.4
20260505005043 68 285 0.0 1.0 0.00 0.00 0.00 74 1016.5
20260505004541 69 235 0.0 1.0 0.00 0.00 0.00 74 1016.4
20260505004039 69 348 0.0 5.0 0.00 0.00 0.00 74 1016.4
20260505003538 69 115 0.0 5.0 0.00 0.00 0.00 74 1016.4
20260505003041 69 276 0.0 2.0 0.00 0.00 0.00 74 1016.4
20260505002538 69 333 0.0 2.0 0.00 0.00 0.00 73 1016.4
20260505002039 70 356 0.0 2.0 0.00 0.00 0.00 73 1016.3
20260505001538 70 316 0.0 2.0 0.00 0.00 0.00 72 1016.3
20260505001037 70 159 0.0 2.0 0.00 0.00 0.00 71 1016.3
20260505000537 70 156 0.0 3.0 0.00 0.00 0.00 71 1016.2
20260505000044 71 233 1.0 3.0 0.00 0.00 0.00 71 1016.1
20260504235534 71 135 0.0 3.0 0.00 0.00 0.00 70 1016.1
20260504235033 71 143 0.0 4.0 0.00 0.00 0.00 70 1016.0
20260504234535 71 210 0.0 5.0 0.00 0.00 0.00 69 1016.0
20260504234031 72 11 0.0 6.0 0.00 0.00 0.00 69 1015.8
20260504233530 72 129 1.0 8.0 0.00 0.00 0.00 68 1015.8
20260504233030 72 102 1.0 8.0 0.00 0.00 0.00 67 1015.8
20260504232532 73 276 1.0 12.0 0.00 0.00 0.00 67 1015.8
20260504232029 73 204 1.0 12.0 0.00 0.00 0.00 66 1015.8
20260504231530 74 13 1.0 4.0 0.00 0.00 0.00 65 1015.7
20260504231029 75 190 0.0 4.0 0.00 0.00 0.00 64 1015.5
20260504230534 75 300 0.0 3.0 0.00 0.00 0.00 63 1015.5
20260504230025 76 93 0.0 3.0 0.00 0.00 0.00 63 1015.5
20260504225526 75 80 0.0 5.0 0.00 0.00 0.00 64 1015.6
20260504225030 75 96 1.0 7.0 0.00 0.00 0.00 64 1015.6
20260504224524 75 62 1.0 7.0 0.00 0.00 0.00 64 1015.6
20260504224023 75 105 1.0 5.0 0.00 0.00 0.00 64 1015.6
20260504223524 75 252 0.0 6.0 0.00 0.00 0.00 64 1015.6
20260504223022 76 341 1.0 6.0 0.00 0.00 0.00 63 1015.7
20260504222521 76 18 1.0 4.0 0.00 0.00 0.00 63 1015.6
20260504222019 76 89 0.0 5.0 0.00 0.00 0.00 64 1015.8
20260504221520 76 98 0.0 5.0 0.00 0.00 0.00 62 1015.9
20260504221020 77 286 1.0 4.0 0.00 0.00 0.00 63 1015.9
20260504220520 77 75 0.0 5.0 0.00 0.00 0.00 61 1015.8
20260504220018 78 99 1.0 5.0 0.00 0.00 0.00 59 1015.8
20260504215515 78 266 0.0 4.0 0.00 0.00 0.00 60 1015.8
20260504215016 78 250 0.0 5.0 0.00 0.00 0.00 60 1015.6
20260504214514 78 244 2.0 7.0 0.00 0.00 0.00 58 1015.7
20260504214020 79 326 1.0 7.0 0.00 0.00 0.00 57 1015.5
20260504213512 79 134 0.0 4.0 0.00 0.00 0.00 58 1015.8
20260504213017 79 304 0.0 4.0 0.00 0.00 0.00 58 1015.7
20260504212511 79 129 0.0 5.0 0.00 0.00 0.00 60 1015.8
20260504212009 78 158 1.0 5.0 0.00 0.00 0.00 58 1016.1
20260504211507 78 145 0.0 4.0 0.00 0.00 0.00 58 1016.0
20260504211007 78 157 0.0 6.0 0.00 0.00 0.00 57 1015.9
20260504210507 78 239 0.0 4.0 0.00 0.00 0.00 57 1016.0
20260504210011 80 108 1.0 4.0 0.00 0.00 0.00 54 1016.1
20260504205509 79 243 0.0 7.0 0.00 0.00 0.00 56 1016.1
20260504205002 79 207 1.0 5.0 0.00 0.00 0.00 55 1016.2
20260504204504 81 100 0.0 5.0 0.00 0.00 0.00 54 1016.1
20260504204003 80 145 1.0 5.0 0.00 0.00 0.00 56 1016.2